Hourly Data Report for August 17, 2020

OTTAWA INTL A
ONTARIO
Current Station Operator: NAVCAN

45°19'00.000" N
75°40'00.000" W
114.90 m
6106001
71628
YOW

Download Data

Hourly Data (August 2020)
Hourly Data Report for August 17, 2020
TIME
LST
Temp Definition
°C
Dew Point Definition
°C
Rel Hum Definition
%
Precip. Amount Definition
mm

Wind Dir Definition
10's deg

Wind Spd Definition
km/h
Visibility Definition
km
Stn Press Definition
kPa
Hmdx Definition


Wind Chill Definition


Weather Definition


00:00 17.5 17.2 98   16 5 9.7 99.90     Rain Showers, Fog
01:00 17.2 17.0 98   18 7 12.9 99.88     Cloudy
02:00 17.3 17.0 99   18 5 11.3 99.83     LegendNANA
03:00 17.2 16.9 99   18 4 12.9 99.78     LegendNANA
04:00 17.3 17.1 99   11 6 12.9 99.76     Cloudy
05:00 17.4 17.1 98   30 4 8.1 99.82     Rain Showers, Fog
06:00 17.4 17.1 98   20 3 24.1 99.81     LegendNANA
07:00 18.1 17.4 96   36 3 24.1 99.80     Mostly Cloudy
08:00 18.8 17.2 90   36 2 24.1 99.82     LegendNANA
09:00 19.6 17.5 87   31 7 24.1 99.81     LegendNANA
10:00 21.7 17.3 76   28 17 24.1 99.80 27   Mostly Cloudy
11:00 22.6 15.8 65   26 11 24.1 99.76 27   LegendNANA
12:00 23.6 15.5 60   28 17 24.1 99.74 28   LegendNANA
13:00 24.6 15.3 56   31 15 24.1 99.70 29   Mainly Clear
14:00 24.6 16.3 59   23 10 24.1 99.63 29   LegendNANA
15:00 25.0 14.9 53   28 13 24.1 99.57 29   LegendNANA
16:00 24.5 14.5 53   26 7 24.1 99.54 28   Mostly Cloudy
17:00 23.4 14.9 58   22 11 24.1 99.53 27   Thunderstorms
18:00 18.1 14.9 81   21 7 24.1 99.61     LegendNANA
19:00 18.1 15.4 84   34 10 24.1 99.62     Mostly Cloudy
20:00 16.6 15.5 94   36 1 24.1 99.57     LegendNANA
21:00 18.2 16.3 89   29 8 24.1 99.63     LegendNANA
22:00 16.8 13.9 83   31 20 24.1 99.59     Cloudy
23:00 15.2 14.0 93   22 8 24.1 99.50     LegendNANA

Notes on Data Quality.

Legend

  • E = Estimated
  • M = Missing
  • NA = Not Available*
  • [empty] = Indicates an unobserved value
Date modified: